Temp
34 34 33 33 33 33 33 32 32 32 32 32 32 31 31 31 32 32 32 31 31 31 31 31 32 35 36 37 36 36 34 33 29 30 32 32 32 30 30 31 31 30 32
34 33 33 33 33 32 32 32 32 32 32 31 31 31 31 31 31 30 30 30 30 29 30 30 31 34 35 36 36 34 33 34 31 26 30 32 31 32 31 29 29 30 30
34 33 33 32 32 31 31 31 32 31 31 31 31 30 30 31 31 31 30 29 30 30 30 30 30 33 33 34 34 33 32 33 32 30 28 31 32 32 31 33 30 29 30
34 33 32 31 31 31 31 31 31 31 31 30 31 31 31 31 32 31 31 30 30 30 31 31 30 32 32 33 32 31 30 30 29 29 28 28 29 31 31 29 29 31 27
33 32 32 32 31 31 30 30 30 31 31 31 31 31 32 32 32 30 31 30 30 30 30 31 31 30 33 34 33 31 30 27 27 27 26 27 26 26 26 29 29 32 31
34 32 32 31 30 30 30 30 30 30 30 30 30 31 31 33 34 33 31 29 29 29 29 30 32 30 31 32 32 34 33 27 25 26 25 23 22 24 27 29 28 27 25
33 32 32 31 30 30 30 30 29 29 29 29 29 30 31 32 34 33 31 30 28 28 29 29 31 31 30 29 30 30 30 31 30 25 23 23 23 23 24 29 29 27 24
33 31 31 31 30 30 29 29 29 29 28 28 29 30 31 33 34 33 31 29 29 28 29 29 29 30 31 29 29 27 27 28 29 28 26 25 27 27 27 29 28 28 28
32 32 31 31 29 29 29 28 28 28 28 28 30 29 30 32 34 33 31 30 28 27 29 30 30 30 32 31 28 26 25 25 29 30 30 29 28 29 26 29 23 24 23
33 32 32 31 31 29 29 29 29 29 29 30 30 29 28 31 34 33 31 30 28 28 28 29 31 30 32 30 28 27 23 22 24 25 24 25 24 24 24 22 22 21 19
34 33 31 31 31 30 30 29 29 29 29 28 29 28 29 30 32 33 33 31 29 28 27 26 29 32 32 31 29 27 24 23 22 21 21 21 21 21 20 20 19 20 20
33 32 30 30 30 29 28 28 28 28 26 26 26 25 27 30 31 33 33 31 31 28 24 25 27 31 30 29 27 28 26 21 18 18 19 17 16 16 17 17 17 17 18
30 30 29 29 29 29 28 26 26 26 26 25 25 24 24 27 28 33 33 32 30 26 25 27 27 26 23 23 26 24 16 18 18 17 16 15 13 13 13 14 14 12 11
30 29 29 28 28 28 28 28 28 26 25 24 24 23 24 24 26 27 28 29 28 26 26 21 24 23 21 17 14 15 15 15 16 14 13 11 11 13 12 9 12 11 15
31 29 28 28 28 27 28 28 28 29 29 26 26 25 23 23 25 27 26 23 21 20 12 13 14 14 13 12 11 9 10 11 12 8 9 11 12 13 11 7 7 10 9
30 27 27 28 27 27 27 27 33 32 32 33 32 28 26 28 30 31 30 29 27 25 12 13 12 11 13 12 11 10 7 5 6 7 7 8 8 10 10 9 7 7 9
31 29 28 28 28 27 27 26 25 30 33 33 33 32 30 30 32 32 32 31 30 25 12 10 13 11 11 9 9 9 11 4 -3 4 5 5 6 6 9 7 7 8 8
32 30 30 30 29 28 28 27 28 26 24 26 33 32 32 32 33 33 33 31 25 18 10 10 10 9 8 8 7 8 6 4 4 4 4 2 3 8 9 7 5 6 8
31 31 31 30 30 30 29 28 28 27 26 26 23 31 31 33 33 34 34 27 23 18 10 8 8 8 7 6 5 4 5 5 3 3 2 1 1 6 3 1 3 -4 -0
32 32 31 30 30 29 28 28 27 26 26 26 25 27 27 26 28 29 30 27 20 19 13 10 8 8 7 6 3 2 1 -0 1 2 1 1 0 3 4 2 3 8 5
32 31 30 30 29 28 28 27 28 27 27 26 26 28 29 27 27 27 28 28 23 21 16 12 9 7 6 6 4 2 3 4 2 1 1 -1 -3 3 -2 -0 -1 -2 1
31 31 29 28 29 28 28 28 28 28 27 27 26 26 31 27 27 27 27 27 24 22 18 14 10 9 7 7 6 5 4 4 2 1 0 -3 -3 -1 -3 -1 -1 -1 0
31 30 29 29 28 29 28 28 28 27 28 27 27 25 28 26 26 27 27 27 21 16 14 13 12 8 7 7 7 9 7 6 6 2 1 -1 -2 -1 -1 2 0 -0 1
31 30 29 29 29 28 27 27 28 28 28 27 26 25 27 28 26 27 26 22 18 16 13 13 13 11 8 7 6 7 8 6 3 3 3 2 -0 -3 -2 -2 -1 -2 0
30 30 29 28 28 27 27 27 27 28 28 28 26 25 27 28 27 25 23 20 17 15 13 13 13 13 10 9 7 6 6 7 2 2 2 3 3 -0 -2 -2 -2 -3 -3
31 30 30 29 28 28 28 27 27 28 27 27 27 26 25 26 28 25 22 19 17 16 15 14 14 14 12 11 10 9 8 8 2 1 2 3 3 1 -1 -0 -2 -2 -3
MSLP
1028.20 1028.71 1029.03 1029.30 1029.39 1029.84 1030.00 1030.31 1030.41 1030.37 1030.80 1031.15 1030.94 1030.81 1030.39 1030.34 1030.25 1030.13 1029.80 1029.71 1029.31 1029.26 1029.03 1028.84 1028.43 1027.81 1027.03 1026.68 1026.44 1026.24 1026.09 1025.93 1025.82 1025.78 1025.62 1025.00 1024.31 1023.91 1023.16 1022.20 1021.06 1019.67 1018.19
1028.39 1028.59 1029.19 1029.53 1029.61 1029.95 1030.13 1030.46 1030.45 1030.54 1030.86 1031.05 1031.23 1031.09 1031.08 1030.70 1030.72 1030.50 1030.45 1030.30 1029.76 1029.69 1029.52 1029.21 1028.88 1028.27 1027.53 1027.26 1026.87 1026.76 1026.72 1026.59 1026.28 1026.11 1025.82 1025.28 1024.86 1024.40 1023.89 1023.20 1022.19 1021.07 1019.86
1028.08 1028.59 1028.96 1029.48 1029.79 1030.11 1030.29 1030.57 1030.59 1030.63 1030.94 1031.00 1031.17 1031.14 1031.41 1031.05 1030.92 1030.81 1030.92 1030.75 1030.27 1030.12 1029.93 1029.73 1029.46 1028.87 1028.17 1027.84 1027.63 1027.42 1027.29 1027.22 1027.08 1026.62 1026.38 1025.94 1025.45 1024.90 1024.17 1023.57 1023.05 1022.28 1021.40
1027.42 1028.23 1028.67 1029.06 1029.60 1029.97 1030.31 1030.60 1030.64 1030.79 1031.04 1031.18 1031.21 1031.22 1031.39 1031.26 1031.12 1031.01 1031.15 1031.11 1030.65 1030.39 1030.25 1030.14 1029.91 1029.38 1028.80 1028.45 1028.27 1028.21 1028.08 1027.68 1027.57 1027.28 1026.84 1026.61 1026.23 1025.49 1024.96 1024.38 1023.56 1023.16 1022.77
1026.91 1027.64 1028.01 1028.75 1029.41 1029.89 1030.49 1030.67 1030.81 1030.94 1031.12 1031.34 1031.28 1031.31 1031.35 1031.13 1031.26 1031.30 1031.35 1031.34 1031.04 1030.72 1030.68 1030.43 1030.49 1030.19 1029.44 1028.95 1028.74 1028.70 1028.64 1028.50 1028.39 1028.23 1027.83 1027.43 1027.06 1026.45 1025.83 1025.31 1024.47 1023.91 1023.63
1026.43 1027.35 1027.92 1028.37 1029.01 1029.62 1030.11 1030.62 1030.88 1031.04 1031.22 1031.34 1031.45 1031.42 1031.45 1031.19 1031.25 1031.26 1031.62 1031.64 1031.41 1031.08 1031.03 1030.85 1030.72 1030.69 1030.17 1029.78 1029.58 1029.27 1029.15 1029.18 1029.24 1029.05 1028.75 1028.42 1028.18 1027.68 1026.82 1026.07 1025.39 1024.79 1024.58
1026.15 1027.07 1027.95 1028.49 1028.83 1029.44 1029.84 1030.20 1030.58 1031.02 1031.21 1031.46 1031.65 1031.65 1031.61 1031.41 1031.41 1031.34 1031.76 1031.99 1031.75 1031.64 1031.49 1031.25 1031.04 1030.98 1030.80 1030.59 1030.32 1030.38 1030.18 1029.84 1030.00 1030.15 1029.71 1029.44 1028.97 1028.67 1027.90 1026.72 1026.32 1026.21 1026.33
1025.48 1026.34 1027.29 1028.10 1028.61 1029.33 1029.85 1030.07 1030.39 1030.81 1030.96 1031.40 1031.79 1031.87 1031.58 1031.50 1031.45 1031.36 1031.93 1032.25 1032.09 1032.04 1031.96 1031.61 1031.47 1031.25 1031.05 1030.96 1030.72 1030.77 1030.97 1030.78 1030.57 1030.52 1030.49 1030.21 1029.75 1028.98 1028.23 1027.52 1027.03 1026.83 1026.80
1024.72 1025.61 1026.38 1027.34 1028.19 1028.84 1029.45 1029.97 1030.33 1030.82 1030.85 1031.26 1031.53 1031.94 1031.62 1031.56 1031.53 1031.38 1031.90 1032.27 1032.28 1032.19 1032.22 1031.84 1031.77 1031.57 1031.32 1031.24 1031.04 1031.10 1031.30 1031.57 1031.49 1031.10 1030.90 1030.73 1030.34 1029.57 1028.87 1027.83 1027.82 1027.48 1027.67
1023.56 1024.69 1025.85 1026.68 1027.43 1028.03 1028.60 1029.40 1029.99 1030.69 1030.79 1031.00 1031.39 1031.78 1031.78 1031.59 1031.53 1031.48 1031.90 1032.20 1032.27 1032.32 1032.43 1032.22 1032.01 1031.97 1031.74 1031.67 1031.52 1031.52 1031.67 1032.22 1031.99 1031.84 1031.56 1031.23 1031.04 1030.67 1030.07 1029.77 1029.42 1029.06 1029.15
1023.01 1024.10 1025.23 1026.08 1026.94 1027.52 1028.25 1029.14 1029.71 1030.34 1030.79 1030.91 1031.31 1031.64 1031.64 1031.61 1031.42 1031.54 1031.76 1032.09 1032.24 1032.36 1032.64 1032.73 1032.57 1032.29 1032.12 1031.94 1031.91 1031.95 1032.12 1032.50 1032.47 1032.41 1032.21 1032.00 1031.75 1031.56 1031.44 1031.29 1031.05 1030.38 1030.41
1022.59 1023.50 1024.83 1025.30 1026.55 1027.38 1027.86 1028.76 1029.46 1030.03 1030.41 1030.82 1031.37 1031.72 1031.61 1031.68 1031.50 1031.40 1031.69 1032.12 1032.21 1032.50 1032.86 1033.13 1033.01 1032.70 1032.66 1032.64 1032.61 1032.55 1032.66 1032.86 1033.00 1032.94 1032.80 1032.88 1032.83 1032.68 1032.53 1032.39 1032.28 1032.07 1031.80
1022.17 1023.38 1024.34 1025.19 1025.93 1026.80 1027.45 1028.29 1029.14 1029.59 1029.78 1030.33 1030.90 1031.43 1031.53 1031.72 1031.59 1031.16 1031.60 1032.13 1032.39 1032.83 1033.06 1033.05 1033.21 1033.46 1033.78 1033.59 1033.26 1033.23 1033.59 1033.27 1033.19 1033.36 1033.69 1034.01 1034.06 1034.02 1033.46 1032.98 1032.88 1032.83 1032.74
1022.00 1022.63 1023.70 1024.95 1025.55 1026.32 1026.94 1027.63 1028.09 1028.76 1029.17 1029.64 1030.09 1030.60 1031.18 1031.48 1031.50 1031.34 1031.75 1032.34 1032.56 1032.89 1033.22 1033.85 1033.66 1033.90 1033.96 1034.49 1034.43 1034.24 1034.22 1034.01 1033.91 1034.19 1034.53 1034.65 1034.50 1034.15 1033.96 1034.09 1033.51 1033.23 1032.78
1021.25 1022.43 1023.57 1024.31 1025.00 1025.69 1026.16 1026.39 1026.84 1027.34 1027.42 1028.17 1028.68 1029.25 1030.10 1030.65 1030.62 1030.99 1031.40 1032.39 1032.98 1033.49 1034.36 1034.72 1034.82 1034.77 1034.87 1034.89 1034.91 1034.99 1035.24 1035.03 1034.96 1035.15 1035.18 1034.91 1034.70 1034.62 1034.89 1035.00 1034.44 1034.24 1034.36
1020.71 1021.54 1022.38 1023.52 1024.36 1024.95 1025.50 1026.02 1026.37 1026.81 1027.10 1027.59 1028.11 1028.45 1029.41 1029.56 1029.86 1030.41 1030.80 1031.68 1032.37 1032.99 1034.31 1034.42 1034.68 1034.82 1034.60 1035.07 1035.28 1035.61 1035.86 1035.95 1036.04 1035.89 1035.75 1035.68 1035.74 1035.48 1035.35 1035.33 1035.16 1035.23 1035.10
1019.51 1020.34 1021.44 1022.04 1022.88 1023.73 1024.49 1024.91 1025.49 1026.30 1026.68 1027.01 1027.44 1027.71 1028.37 1028.61 1029.08 1029.59 1030.04 1030.93 1031.70 1032.52 1033.43 1033.85 1034.21 1034.70 1034.94 1035.34 1035.77 1035.86 1036.09 1036.66 1037.39 1036.54 1036.38 1036.14 1035.84 1035.78 1035.82 1035.93 1035.72 1035.54 1035.47
1018.72 1019.27 1020.02 1020.86 1021.42 1022.02 1022.75 1023.62 1024.38 1024.94 1025.50 1026.05 1026.44 1026.81 1027.42 1027.99 1028.38 1028.91 1029.19 1030.34 1031.30 1032.15 1032.79 1033.43 1033.87 1034.52 1035.00 1035.29 1035.37 1035.38 1035.84 1036.42 1036.61 1036.53 1036.53 1036.32 1035.94 1035.83 1035.93 1035.92 1036.08 1035.98 1035.92
1017.73 1018.30 1018.97 1019.65 1020.28 1020.84 1021.37 1022.30 1023.14 1023.85 1024.43 1025.31 1025.96 1026.17 1026.72 1026.96 1027.66 1028.18 1028.42 1029.22 1030.13 1031.15 1032.17 1032.87 1033.11 1033.48 1034.06 1034.49 1034.98 1035.14 1035.32 1035.55 1035.61 1035.96 1036.29 1036.44 1036.40 1036.35 1036.63 1036.62 1036.39 1036.41 1036.28
1016.83 1017.13 1017.85 1018.59 1019.26 1020.00 1020.61 1021.09 1021.76 1022.43 1023.28 1024.05 1024.57 1024.82 1025.92 1026.74 1026.73 1027.01 1027.39 1028.13 1029.17 1030.03 1031.04 1031.98 1032.52 1032.96 1033.33 1033.93 1034.65 1035.13 1035.37 1035.69 1035.69 1035.63 1035.72 1035.98 1036.23 1036.27 1036.51 1036.72 1036.66 1036.32 1036.31
1015.66 1016.34 1016.66 1017.46 1018.00 1018.40 1019.04 1019.67 1020.17 1021.07 1021.52 1022.31 1022.87 1023.50 1024.13 1024.48 1025.08 1025.60 1026.06 1026.68 1027.64 1028.51 1029.52 1030.64 1031.52 1032.53 1033.09 1033.56 1034.33 1034.76 1034.93 1034.85 1035.20 1035.34 1035.68 1035.96 1036.05 1036.23 1036.31 1036.44 1036.65 1036.72 1036.61
1014.35 1014.97 1015.59 1015.84 1016.36 1017.08 1017.48 1018.19 1018.84 1019.34 1019.98 1020.51 1021.46 1022.21 1023.11 1023.84 1024.18 1024.48 1024.91 1025.47 1026.15 1026.97 1028.09 1029.15 1030.39 1031.16 1031.92 1032.24 1032.89 1033.73 1033.94 1034.37 1034.49 1035.06 1035.33 1035.95 1036.09 1035.96 1036.13 1036.40 1036.52 1036.57 1036.55
1013.17 1013.62 1014.28 1014.72 1015.22 1015.74 1016.40 1016.74 1017.27 1017.79 1018.40 1019.20 1019.85 1020.58 1021.47 1021.97 1022.66 1023.09 1023.56 1024.28 1025.15 1026.25 1027.21 1028.00 1028.87 1030.12 1030.82 1031.37 1031.73 1032.05 1032.62 1032.93 1033.18 1033.99 1034.59 1035.13 1035.36 1035.80 1036.06 1036.32 1036.43 1036.50 1036.34
1011.72 1012.18 1012.59 1013.22 1013.77 1014.41 1014.75 1015.12 1015.52 1015.95 1016.68 1017.59 1018.53 1019.00 1019.52 1020.02 1020.90 1021.47 1022.28 1023.21 1024.10 1025.13 1026.05 1026.74 1027.25 1028.03 1029.24 1030.14 1030.83 1031.42 1031.63 1031.77 1032.50 1033.08 1033.57 1034.03 1034.56 1035.27 1035.24 1035.49 1035.68 1035.86 1035.93
1010.13 1010.52 1011.02 1011.53 1012.09 1012.62 1013.36 1013.71 1014.07 1014.48 1015.01 1015.72 1016.54 1017.29 1018.02 1018.55 1019.38 1020.05 1020.94 1022.04 1022.90 1023.86 1024.76 1025.34 1025.91 1026.26 1027.21 1028.29 1029.05 1029.52 1030.39 1031.33 1031.64 1032.04 1032.82 1033.43 1033.68 1034.44 1034.81 1035.09 1035.44 1035.75 1035.80
1008.72 1008.91 1009.28 1009.88 1010.41 1011.04 1011.66 1012.10 1012.55 1013.04 1013.50 1014.01 1014.65 1015.43 1016.19 1017.02 1017.62 1018.36 1019.35 1020.50 1021.50 1022.25 1023.25 1023.97 1024.41 1024.92 1025.53 1026.46 1027.32 1028.40 1029.14 1029.71 1030.90 1031.52 1031.97 1032.69 1033.10 1033.66 1034.25 1034.40 1034.83 1035.15 1035.47
Wind_Speed
8 7 8 7 8 7 7 6 6 6 5 5 6 6 8 9 9 8 10 10 11 11 11 11 12 12 8 8 7 7 8 7 7 5 6 6 9 12 13 15 15 15 16
7 9 8 7 7 7 7 6 6 7 5 5 4 6 6 8 8 9 9 8 11 11 11 11 11 9 11 10 8 9 9 8 4 5 5 6 5 10 9 13 12 12 14
9 8 9 8 7 7 7 6 6 7 5 5 5 6 5 7 8 9 8 8 9 10 10 10 9 12 11 9 9 8 7 6 6 5 7 6 4 9 9 8 10 13 12
10 9 9 9 8 8 7 6 6 6 6 5 5 6 5 5 7 7 8 8 8 9 9 10 9 12 11 10 9 9 7 6 7 6 6 6 4 7 7 8 8 10 12
12 11 11 9 8 8 7 7 6 6 5 5 5 5 4 5 6 7 7 8 8 9 9 9 8 8 15 15 8 10 8 7 7 8 8 6 7 6 9 7 7 5 9
12 11 10 10 10 9 8 8 6 6 5 5 4 4 4 4 12 12 8 7 8 8 8 8 7 7 10 14 16 19 15 9 10 7 6 6 7 7 7 8 8 7 6
12 10 10 10 11 9 9 9 8 7 6 5 4 4 5 5 11 12 10 6 7 7 7 7 7 6 6 7 12 14 16 18 15 6 7 8 7 9 8 8 8 7 6
13 12 12 11 11 9 9 9 8 7 7 6 5 4 5 4 10 12 10 6 7 8 7 8 7 7 8 7 8 10 9 10 9 7 8 8 9 10 7 6 6 3 2
14 13 13 13 12 12 11 9 7 7 6 5 5 5 5 4 8 9 6 4 5 7 6 8 7 7 10 10 8 9 10 9 9 14 16 17 18 22 17 4 9 5 5
16 15 14 14 13 14 13 11 8 7 8 6 6 5 4 5 7 8 6 3 5 4 5 7 10 7 11 11 7 7 8 6 7 7 9 11 14 15 21 13 7 7 4
13 13 13 13 12 12 11 9 9 8 7 6 6 4 4 5 5 7 7 3 4 4 4 4 4 9 10 12 11 7 6 3 6 5 5 6 7 9 9 10 10 8 6
13 15 13 14 10 10 12 10 9 9 8 7 6 4 2 4 6 7 7 6 6 5 4 2 3 9 10 11 8 11 11 8 4 4 5 6 6 6 5 6 9 9 8
13 13 12 12 12 12 12 11 9 9 8 8 7 5 4 3 2 10 8 7 8 5 4 5 7 7 7 8 11 10 6 3 4 5 5 3 3 4 5 2 2 3 5
14 14 13 13 12 11 9 9 10 10 9 8 8 7 6 4 4 4 3 4 7 5 7 4 6 7 7 5 3 6 4 3 3 3 2 1 2 3 4 4 3 3 3
13 11 11 10 12 11 11 11 11 10 12 11 10 9 10 8 8 10 9 5 5 5 5 2 1 1 2 1 2 3 3 4 4 2 2 2 2 2 4 4 3 3 5
12 11 11 10 10 10 10 8 16 13 18 18 14 11 6 7 16 18 16 14 12 14 2 3 3 2 3 2 2 2 2 2 3 2 2 2 3 3 2 2 3 3 4
13 13 10 13 12 12 11 11 11 12 17 19 18 18 18 14 18 20 18 15 15 12 3 3 3 4 3 3 1 0 2 2 1 2 2 1 2 2 2 3 2 2 2
13 16 12 13 12 12 12 12 10 11 11 11 19 16 19 19 19 20 20 16 8 6 3 4 4 4 3 3 4 3 4 3 2 1 1 1 2 1 1 2 2 1 1
12 11 12 11 11 13 12 12 11 11 10 9 5 15 16 21 20 21 22 9 9 7 5 4 4 6 5 5 4 3 3 4 4 3 2 1 1 1 2 1 2 2 2
12 15 14 11 11 12 12 12 12 12 11 10 11 11 10 10 12 12 11 9 8 8 6 6 5 5 5 5 5 4 3 3 3 3 3 3 2 2 2 2 0 1 1
10 11 17 11 12 13 13 14 13 12 13 12 11 12 22 15 13 13 12 12 10 10 9 8 6 6 5 5 5 5 4 5 4 3 3 3 4 3 2 2 2 1 1
11 11 13 14 12 13 14 13 13 14 14 14 12 13 28 12 11 11 12 12 10 10 8 9 7 8 8 8 8 7 6 5 5 4 5 4 3 3 3 2 2 2 1
12 13 13 13 13 14 14 14 14 14 14 13 13 12 16 14 13 13 12 11 9 9 8 9 9 7 7 7 7 8 9 8 7 7 6 5 5 4 4 3 3 2 2
13 14 15 14 13 14 14 15 15 18 16 14 13 13 15 15 14 15 12 9 9 9 9 9 10 12 10 9 7 6 6 5 5 7 8 7 6 6 4 3 4 4 3
13 14 15 14 14 15 14 15 15 15 15 15 15 14 14 14 14 13 12 10 10 10 11 11 9 14 16 16 14 15 12 11 9 9 6 6 7 8 5 3 4 3 3
14 15 15 13 14 14 14 15 15 15 15 15 15 14 15 15 14 13 13 13 12 12 12 11 13 17 18 16 17 16 16 16 12 12 8 7 7 6 5 5 6 3 3
Wind_Direction
150 142 141 140 133 127 118 113 111 104 89 65 58 66 72 67 55 54 58 51 56 51 44 41 46 43 41 41 44 39 37 32 43 22 17 357 15 6 358 359 1 7 11
156 146 149 145 138 132 129 128 125 111 99 90 74 77 74 76 65 61 60 51 56 51 45 43 42 46 43 35 39 42 30 28 39 29 354 353 2 359 354 14 7 8 16
157 157 152 153 148 144 142 139 132 120 111 100 93 89 83 80 76 66 60 54 56 52 49 43 35 47 49 38 36 39 42 35 24 30 12 3 343 359 352 4 20 13 17
159 162 162 161 160 153 151 150 138 127 124 115 100 96 89 84 77 72 64 56 57 53 53 48 36 47 48 43 42 37 30 40 23 23 24 14 355 350 4 357 6 27 19
167 171 170 158 153 151 156 153 143 135 129 126 116 101 95 89 82 74 67 59 55 56 52 51 41 23 57 56 50 41 34 36 27 25 19 15 9 356 2 352 2 0 38
172 176 164 157 156 162 156 157 151 145 140 134 124 115 101 95 92 82 73 68 57 54 54 46 50 43 53 63 57 55 52 45 40 30 22 15 352 345 345 359 6 14 10
171 167 170 165 164 171 161 160 158 160 145 144 140 131 120 109 105 94 81 73 69 55 53 48 54 48 55 64 64 60 50 53 53 28 32 20 356 339 319 346 15 30 30
175 169 169 171 168 165 168 172 161 164 153 152 153 156 142 132 123 109 96 84 72 59 48 50 50 48 58 62 70 66 54 47 45 47 38 27 21 3 359 342 347 6 43
179 177 172 171 170 168 175 177 168 170 155 157 157 171 151 149 148 128 118 105 81 66 48 51 46 57 63 67 76 73 64 47 38 50 53 48 37 35 33 33 26 23 26
179 180 175 175 176 177 175 174 173 175 163 155 157 175 165 163 164 146 138 139 111 94 58 41 56 58 67 67 69 75 72 34 34 34 42 39 37 32 34 40 27 43 27
174 170 172 177 181 175 168 168 163 166 163 157 158 168 165 174 169 166 160 173 143 123 96 56 35 62 67 69 68 65 74 71 49 52 47 41 38 39 35 33 36 44 50
169 166 178 172 172 175 165 164 167 166 164 166 164 174 179 182 173 165 162 166 148 137 123 98 47 63 66 67 64 73 76 81 71 57 47 38 25 20 18 39 46 54 56
166 174 181 174 172 175 167 168 169 176 174 176 177 183 181 187 180 165 162 163 141 119 133 124 100 83 64 49 63 69 60 68 78 64 50 34 16 337 336 359 35 51 66
180 177 172 179 176 173 173 179 178 184 181 183 182 182 181 188 185 156 139 155 150 127 115 99 100 86 83 78 34 42 41 36 66 74 62 349 334 19 31 11 29 352 37
172 170 178 181 182 179 188 187 192 198 190 186 192 180 174 197 200 175 156 160 150 146 110 78 73 99 117 116 81 52 40 39 60 42 29 44 45 30 38 1 24 33 54
176 174 176 179 184 187 187 186 208 202 198 203 193 178 187 184 183 187 178 184 178 159 103 160 190 207 181 165 137 97 49 37 48 69 59 42 36 36 45 37 57 51 66
185 180 182 183 182 183 188 187 186 204 204 208 202 194 192 184 186 189 185 187 187 168 193 194 190 192 183 166 169 94 114 79 35 43 44 78 120 79 54 29 49 47 69
192 183 183 189 189 184 187 190 186 186 188 199 209 197 199 195 190 190 181 174 188 178 188 188 190 178 182 193 183 173 156 148 123 126 128 59 57 86 113 87 58 69 40
190 187 190 191 192 194 186 186 190 188 191 191 177 199 200 194 194 192 188 185 196 200 196 205 197 174 185 181 192 182 170 166 163 157 145 154 130 122 96 75 105 74 133
200 194 190 190 187 191 191 190 189 190 188 189 191 193 177 172 192 193 197 190 189 201 187 199 194 198 179 179 178 179 166 177 179 170 162 164 160 150 128 145 226 123 75
197 195 192 193 195 193 192 197 192 193 193 194 198 191 186 185 190 193 195 197 196 202 188 188 186 191 184 174 167 186 195 178 194 179 175 173 167 157 151 129 128 114 140
196 196 192 199 194 197 198 196 196 195 199 195 190 190 193 194 195 196 198 202 194 195 185 177 180 185 190 183 178 183 185 202 188 181 180 180 188 166 154 153 166 159 179
198 195 197 199 202 199 199 197 197 198 199 201 191 181 190 194 198 199 198 194 186 177 173 175 174 177 181 189 184 183 182 200 194 171 178 180 177 173 175 182 180 191 198
199 200 198 200 198 201 201 201 201 199 199 196 195 190 193 194 197 200 196 185 177 178 176 180 180 176 180 185 184 193 205 174 165 182 176 176 180 178 172 177 186 191 180
203 200 200 198 200 201 203 206 204 203 199 196 196 194 198 198 197 194 190 184 182 178 187 183 188 182 179 184 188 188 185 188 184 172 169 175 178 177 177 180 170 187 184
207 204 204 200 199 199 203 201 206 205 204 201 198 197 193 200 200 191 187 183 187 186 183 190 190 188 184 187 189 188 184 177 178 179 166 176 179 179 181 182 182 183 179